Location: Newark
(48.5667°N, 7.8167°E)
Time: 11:20:57
(UTC+00:00)

CZ-6 R/B - Pass Details

Date: 03 December 2021
Orbit: 384 x 500 km, 97.7° (Epoch: 18 January)

Event Time Altitude Azimuth Distance (km) Brightness Sun altitude
Exits shadow 16:15:25 - 17° (NNE) 2,322 ? -6.7°
Reaches altitude 10° 16:17:24 10° 21° (NNE) 1,468 ? -7.0°
Maximum altitude 16:20:28 57° 101° (E) 475 ? -7.4°
Drops below altitude 10° 16:23:27 10° 181° (S) 1,419 ? -7.9°
Sets 16:25:24 0° 186° (S) 2,261 ? -8.2°
